Regional Weather Roundup
Issued by NWS

Home | Current Version | Previous Version | Graphics & Text | Print | Product List | Glossary On
Versions: 1 2 3 4 5 6 7 8 9 10 11 12 13 14 15 16 17 18 19 20 21 22 23 24 25 26 27 28 29 30 31 32 33 34 35 36 37 38 39 40 41 42 43 44 45 46 47 48 49 50
699
ASUS44 KMEG 191400
RWRTN
TENNESSEE HOURLY STATE WEATHER ROUNDUP
NATIONAL WEATHER SERVICE MEMPHIS TN
800 AM CST SUN FEB 19 2017

TNZ002-004-019-021-049-052-054-088>092-191500-
WEST TENNESSEE

CITY           SKY/WX    TMP DP  RH WIND       PRES   REMARKS
MEMPHIS INTL   SUNNY     53  52  96 CALM      30.08R
NWS MEMPHIS      N/A     49 N/A N/A MISG        N/A
JACKSON        SUNNY     49  48  97 CALM      30.11R
UNION CITY     CLOUDY   N/A N/A N/A CALM      30.10R VSB 0
PARIS          SUNNY     48  48 100 SW3       30.11R
$$

TNZ008-025-027-028-033-062-065-066-191500-
NORTH MIDDLE TENNESSEE

CITY           SKY/WX    TMP DP  RH WIND       PRES   REMARKS
NASHVILLE      CLOUDY    49  47  93 CALM      30.11R FOG
CLARKSVILLE    SUNNY     46  44  93 SE3       30.10R FOG
SMYRNA         PTSUNNY   48  47  96 CALM      30.13R FOG
CROSSVILLE     CLOUDY    49  47  93 NW5       30.11R
$$

TNZ061-075-076-078-094-096-097-191500-
SOUTH MIDDLE TENNESSEE

CITY           SKY/WX    TMP DP  RH WIND       PRES   REMARKS
TULLAHOMA      CLOUDY    48  48 100 CALM      30.12R VSB 1/4
COLUMBIA       SUNNY    N/A N/A N/A CALM      30.09R
SHELBYVILLE    SUNNY     50  50 100 CALM      30.12R
$$

TNZ017-018-042-046-047-191500-
NORTHEAST TENNESSEE

CITY           SKY/WX    TMP DP  RH WIND       PRES   REMARKS
TRI CITIES     CLOUDY    48  47  96 SW3       30.09R FOG
$$

TNZ012-013-036-069-073-074-191500-
CENTRAL EAST TENNESSEE

CITY           SKY/WX    TMP DP  RH WIND       PRES   REMARKS
KNOXVILLE      CLOUDY    51  48  89 CALM      30.09R FOG
OAK RIDGE      CLOUDY    50  48  93 CALM      30.11R FOG
GATLINBURG     PTSUNNY   48  46  93 CALM      30.09R
$$

TNZ083-085-099-191500-
SOUTHEAST TENNESSEE

CITY           SKY/WX    TMP DP  RH WIND       PRES   REMARKS
CHATTANOOGA    DRZL/FOG  52  50  93 CALM      30.10R VSB 1
$$

SKY/WX REPORTED AS FAIR MEANS FEW OR NO CLOUDS BELOW
12 THOUSAND FEET.





USA.gov is the U.S. government's official web portal to all federal, state and local government web resources and services.